Chillicothe, MO

3:21 AM CDT on August 23, 2017 (GMT -0500)
Chillicothe

Weather History for KCDJ - November, 2012

Change the Weather History Date:

Wednesday, November 7, 2012

  Actual Average (KIRK) Record (KIRK)
Temperature  
Mean Temperature 43 °F -  
Max Temperature 51 °F 52 °F 75 °F (1945)
Min Temperature 35 °F 33 °F 5 °F (1991)
Degree Days  
Heating Degree Days 22    
Moisture  
Dew Point 33 °F    
Average Humidity 68    
Maximum Humidity 86    
Minimum Humidity 50    
Precipitation  
Precipitation 0.00 in - - ()
Sea Level Pressure  
Sea Level Pressure 30.14 in    
Wind  
Wind Speed 4 mph (NW)    
Max Wind Speed 8 mph    
Max Gust Speed -    
Averages and records for this station are not official NWS values.
T = Trace of Precipitation, MM = Missing Value Source: NWS Daily Summary

Daily Weather History Graph

Daily Weather History Graph

Search for Another Location

Airport or City:

Trip Planner

Search our weather history database for the weather conditions in past years. The results will help you decide how hot, cold, wet, or windy it might be!

Date:

Astronomy

Nov. 07, 2012 Rise Set
Actual Time 6:50 AM CST 5:05 PM CST
Civil Twilight 6:22 AM CST 5:33 PM CST
Nautical Twilight 5:49 AM CST 6:05 PM CST
Astronomical Twilight 5:18 AM CST 6:37 PM CST
Moon No Moon Rise 1:13 PM CST (11/7)
Length of Visible Light 11h 11m
Length of Day
10h 14m
Last Quarter, 43% of the Moon is Illuminated
Nov 7
Last Quarter
Nov 13
New
Nov 20
First Quarter
Nov 28
Full
Dec 6
Last Quarter

Hourly Weather History & Observations

Time (CST) Temp. Windchill Dew Point Humidity Pressure Visibility Wind Dir Wind Speed Gust Speed Precip Events Conditions
12:52 AM 46.0 °F 43.9 °F 34.0 °F 63% 30.04 in - Variable 4.6 mph - N/A   Unknown
1:52 AM 46.9 °F - 33.1 °F 59% 30.04 in - WNW 4.6 mph - N/A   Unknown
2:52 AM 45.0 °F 41.2 °F 33.1 °F 63% 30.04 in - WNW 6.9 mph - N/A   Unknown
3:52 AM 42.1 °F 37.1 °F 33.1 °F 70% 30.05 in - WNW 8.1 mph - N/A   Unknown
4:52 AM 39.9 °F 35.8 °F 32.0 °F 73% 30.07 in - NW 5.8 mph - N/A   Unknown
5:52 AM 39.0 °F 34.8 °F 32.0 °F 76% 30.09 in - NNW 5.8 mph - N/A   Unknown
6:52 AM 39.0 °F 36.8 °F 32.0 °F 76% 30.12 in - WNW 3.5 mph - N/A   Unknown
7:52 AM 39.9 °F 35.8 °F 32.0 °F 73% 30.16 in - NW 5.8 mph - N/A   Unknown
8:52 AM 45.0 °F 43.5 °F 34.0 °F 65% 30.18 in - Variable 3.5 mph - N/A   Unknown
9:52 AM 46.0 °F 41.9 °F 34.0 °F 63% 30.19 in - NNW 8.1 mph - N/A   Unknown
10:52 AM 48.9 °F - 34.0 °F 56% 30.20 in - Variable 6.9 mph - N/A   Unknown
11:52 AM 50.0 °F - 34.0 °F 54% 30.18 in - Variable 3.5 mph - N/A   Unknown
12:52 PM 48.9 °F - 33.1 °F 54% 30.16 in - Variable 5.8 mph - N/A   Unknown
1:52 PM 48.9 °F - 32.0 °F 52% 30.15 in - Variable 3.5 mph - N/A   Unknown
2:52 PM 51.1 °F - 33.1 °F 50% 30.14 in - North 3.5 mph - N/A   Unknown
3:52 PM 51.1 °F - 33.1 °F 50% 30.14 in - Calm Calm - N/A   Unknown
5:52 PM 41.0 °F - 33.1 °F 73% 30.16 in - Calm Calm - N/A   Unknown
6:52 PM 37.9 °F - 33.1 °F 83% 30.17 in - Calm Calm - N/A   Unknown
7:52 PM 36.0 °F - 32.0 °F 86% 30.17 in - Calm Calm - N/A   Unknown
8:52 PM 35.1 °F - 30.9 °F 85% 30.17 in - Calm Calm - N/A   Unknown
9:52 PM 37.9 °F - 32.0 °F 79% 30.17 in - Calm Calm - N/A   Unknown
10:52 PM 39.0 °F 35.7 °F 32.0 °F 76% 30.17 in - SSE 4.6 mph - N/A   Unknown
11:52 PM 37.9 °F 34.4 °F 32.0 °F 79% 30.17 in - South 4.6 mph - N/A   Unknown